DECAYED

STARLINK-1318, 45416 (Decayed)

Orbit data source: Space-Track

STARLINK-1318, 45416 was a payload satellite owned by SpaceX/Seattle (US) in LEO that was launched on Wed, 18 Mar 2020 UTC via an FALCON 9 launch vehicle from the Air Force Eastern Test Range (AFETR). Payload-class satellites include a variety of spacecraft equipped with specific instruments for various scientific and technological missions. These include communications satellites like Starlink; space stations such as the ISS; scientific satellites like the Hubble; Earth observation satellites from companies like Planet Labs, Umbra, and HawkEye 360; GPS; miniature CubeSats for education and research; and military/defense satellites.

Not visible in the next 10 days
Identifier
45416, 2020-019BJ
Orbit
Decayed
Country
Flag of USUS
Related business
Manufacturer
SpaceX/Seattle
Mission
Decayed Commercial Communications
Bus & Motor
STARLINK, Unknown motor
Mass
260 kg wet, ~248 kg dry
Launch date (UTC)
2020-03-18 (7 years ago)
Launch vehicle
FALCON 9
Launch site
Air Force Eastern Test Range (AFETR)
Object type
Payload
Rocket body
Debris
Shape & HBR
Box + 1 Pan, 10.1 m
Radar Cross Section
13.562 m², Large (>1 m²)

Expand to show TLE details & history
Last TLE update: 7 months ago

TLE from 7 months ago
0 STARLINK-1318
1 45416U 20019BJ  26060.58072376  .12842981  12525-4  33563-3 0  9991
2 45416  53.0199  78.8814 0002168 268.4541  91.6260 16.45864176329963
Epoch: 2026-03-01T13:56Z
TLE epoch observation values (Epoch: 2026-03-01T13:56:14.532Z)
Latitude
0.00001°
Longitude
70.43442°
Altitude
151.218 km
Speed
7.817 km/s
True Right ascension
05h 15m 31s
True Declination
0° 00' 00"
Sunlit
Object was in daylight at epoch
Visualization orbit readout
Latitude
Unknown
Longitude
Unknown
Altitude
Unknown
Speed
Unknown
Apparent Right ascension
Unknown
Apparent Declination
Unknown
Sunlit
N/A
Visualization observer readout
Local Sidereal Time
07:37:29
Azimuth
Unknown
Elevation
Unknown
Doppler factor
Unknown
Orbital elements
Apogee altitude
151.957 km
Perigee altitude
149.126 km
Semi-major axis
6,528.679 km
Eccentricity
0.00022
Inclination
53.0199°
RAAN
78.8814°
Arg. of periapsis
268.4541°
True anomaly
91.65083°
Mean anomaly
91.626°
Eccentric anomaly
91.63842°
Mean motion
4.11439 °/min
Orbital period
87.5 mins
BSTAR
0.00033563
Loading maneuver chart data...
Computing Atmospheric mass density...

Documentation

Showing up to 5 results
|